Waarnemingen

Advertentie
Mijn weer
Valley, Groot Brittannië (3302): temperatuur & dauwpunt: 17.07.2018 12:00:00 - 23.07.2018 12:00:00 (BST)Valley, Groot Brittannië (3302): temperatuur -20cm & temperatuur -100cm: 17.07.2018 12:00:00 - 23.07.2018 12:00:00 (BST)Valley, Groot Brittannië (3302): windsnelheid: 17.07.2018 12:00:00 - 23.07.2018 12:00:00 (BST)Valley, Groot Brittannië (3302): windrichting: 17.07.2018 12:00:00 - 23.07.2018 12:00:00 (BST)Valley, Groot Brittannië (3302): luchtdruk: 17.07.2018 12:00:00 - 23.07.2018 12:00:00 (BST)Valley, Groot Brittannië (3302): zicht: 17.07.2018 12:00:00 - 23.07.2018 12:00:00 (BST)Valley, Groot Brittannië (3302): Zonneschijnduur: 17.07.2018 12:00:00 - 23.07.2018 12:00:00 (BST)Valley, Groot Brittannië (3302): neerslag: 17.07.2018 12:00:00 - 23.07.2018 12:00:00 (BST)
Datum & Tijd tt [°C] td [°C] tt -20cm [°C] tt -100cm [°C] ff [km/u] ff [kn] dd ppp [hPa] vv [km] sd [min] rr [mm]
23.07.2018 12:00:00 18,1 17,3 - - 26 14 Z 1015,5 4,0 0 0,0
23.07.2018 11:00:00 17,5 17,3 - - 26 14 Z 1015,6 1,2 0 0,0
23.07.2018 10:00:00 17,2 17,1 19,0 16,7 24 13 Z 1015,7 1,1 0 0,0
23.07.2018 09:00:00 17,5 16,7 - - 21 11 Z 1015,8 10 0 0,0
23.07.2018 08:00:00 17,4 16,8 - - 18 10 Z 1015,5 10 0 0,0
23.07.2018 07:00:00 17,9 17,0 - - 15 8 Z 1015,3 10 0 0,0
23.07.2018 06:00:00 18,2 17,4 - - 15 8 ZZO 1015,5 10 0 0,0
23.07.2018 05:00:00 17,8 17,4 - - 11 6 ZZO 1015,9 16 0 0,0
23.07.2018 04:00:00 17,5 16,9 - - 16 9 Z 1016,1 8 0 0,0
23.07.2018 03:00:00 17,6 16,6 - - 16 9 Z 1016,2 21 0 0,0
23.07.2018 02:00:00 17,9 16,5 - - 15 8 ZZW 1016,3 10 0 0,0
23.07.2018 01:00:00 18,2 16,5 - - 16 9 Z 1016,4 10 - 0,0
23.07.2018 00:00:00 18,7 16,2 - - 16 9 Z 1016,4 10 0 0,0
22.07.2018 23:00:00 18,3 16,0 - - 18 10 Z 1016,5 10 0 0,0
22.07.2018 22:00:00 18,1 15,9 - - 18 10 Z 1016,5 10 0 0,0
22.07.2018 21:00:00 18,1 15,7 - - 21 11 ZZW 1016,3 10 42 0,0
22.07.2018 20:00:00 18,8 14,4 - - 21 11 ZZW 1016,2 10 54 0,0
22.07.2018 19:00:00 19,0 15,7 - - 16 9 ZZW 1016,3 30 54 0,0
22.07.2018 18:00:00 19,5 16,0 - - 13 7 ZZW 1016,4 10 60 0,0
22.07.2018 17:00:00 20,0 16,0 - - 15 8 Z 1016,6 30 60 0,0
22.07.2018 16:00:00 20,5 16,0 - - 16 9 Z 1016,9 10 48 0,0
22.07.2018 15:00:00 20,0 15,8 - - 16 9 Z 1017,0 19 0 0,0
22.07.2018 14:00:00 20,2 15,5 - - 11 6 ZZW 1016,9 25 0 0,0
22.07.2018 13:00:00 18,6 15,7 - - 11 6 ZZW 1017,1 10 0 0,0
22.07.2018 12:00:00 17,0 15,9 - - 15 8 ZZW 1017,0 2,4 0 0,0
22.07.2018 11:00:00 17,3 15,9 - - 13 7 ZZW 1016,8 2,9 6 0,0
22.07.2018 10:00:00 16,5 15,7 18,2 16,7 9 5 ZZW 1016,9 12 0 0,0
22.07.2018 09:00:00 16,0 15,9 - - 11 6 ZW 1016,8 1,4 0 0,0
22.07.2018 08:00:00 15,8 15,6 - - 9 5 ZW 1016,6 2,9 0 0,0
22.07.2018 07:00:00 15,5 15,3 - - 11 6 W 1016,4 1,4 0 0,0
22.07.2018 06:00:00 15,7 14,1 - - 15 8 WZW 1016,2 10 0 0,0
22.07.2018 05:00:00 15,7 13,5 - - 15 8 ZW 1015,9 40 0 0,0
22.07.2018 04:00:00 15,5 13,1 - - 11 6 ZZW 1016,0 30 0 0,0
22.07.2018 03:00:00 15,3 12,8 - - 15 8 Z 1016,2 35 0 0,0
22.07.2018 02:00:00 15,4 13,0 - - 16 9 Z 1016,3 10 0 0,0
22.07.2018 01:00:00 15,2 12,8 - - 15 8 ZZW 1016,5 40 - 0,0
22.07.2018 00:00:00 15,1 12,9 - - 16 9 WZW 1016,9 10 0 0,0
21.07.2018 23:00:00 15,1 12,6 - - 11 6 WZW 1016,9 10 0 0,0
21.07.2018 22:00:00 15,1 12,5 - - 15 8 WZW 1017,0 35 0 0,0
21.07.2018 21:00:00 15,6 12,3 - - 11 6 WZW 1016,5 10 0 0,0
21.07.2018 20:00:00 16,1 12,0 - - 11 6 ZW 1016,2 10 0 0,0
21.07.2018 19:00:00 16,5 12,1 - - 9 5 WZW 1016,0 10 0 0,0
21.07.2018 18:00:00 17,6 12,2 - - 4 2 NW 1016,1 30 0 0,0
21.07.2018 17:00:00 16,8 11,7 - - 8 4 NW 1016,4 50 0 0,0
21.07.2018 16:00:00 16,6 11,1 - - 15 8 NNW 1016,7 10 0 0,0
21.07.2018 15:00:00 17,0 11,0 - - 15 8 NNW 1016,5 35 0 0,0
21.07.2018 14:00:00 16,2 11,0 - - 13 7 NW 1016,4 50 0 0,0
21.07.2018 13:00:00 16,1 11,9 - - 16 9 NNW 1016,7 10 0 0,0
21.07.2018 12:00:00 15,5 12,5 - - 11 6 NNW 1016,2 10 0 0,0
21.07.2018 11:00:00 15,2 13,4 - - 13 7 NNW 1015,9 10 0 0,0
21.07.2018 10:00:00 14,2 13,1 18,0 16,7 13 7 NNW 1015,7 26 0 0,0
21.07.2018 09:00:00 14,3 13,5 - - 15 8 N 1015,5 10 0 0,0
21.07.2018 08:00:00 13,8 13,3 - - 16 9 N 1014,9 4,3 0 0,2
21.07.2018 07:00:00 13,5 13,1 - - 16 9 N 1014,7 4,7 0 0,0
21.07.2018 06:00:00 13,5 13,1 - - 15 8 NNW 1014,4 5 0 0,0
21.07.2018 05:00:00 13,6 13,4 - - 16 9 N 1014,0 2,8 0 0,0
21.07.2018 04:00:00 14,0 13,8 - - 15 8 N 1013,8 3,3 0 0,0
21.07.2018 03:00:00 14,3 14,1 - - 16 9 NNW 1013,8 9 0 0,0
21.07.2018 02:00:00 15,0 14,9 - - 9 5 NW 1013,4 2,5 0 0,0
21.07.2018 01:00:00 15,0 14,9 - - 8 4 WZW 1013,2 1,3 - 0,2
21.07.2018 00:00:00 15,1 14,9 - - 9 5 ZZW 1013,4 4,1 0 0,0
20.07.2018 23:00:00 15,1 14,7 - - 13 7 Z 1013,2 10 0 0,0
20.07.2018 22:00:00 14,7 14,5 - - 21 11 ZZO 1013,1 3,8 0 0,4
20.07.2018 21:00:00 14,6 14,4 - - 18 10 Z 1013,3 3,4 0 0,8
20.07.2018 20:00:00 14,5 14,0 - - 21 11 Z 1013,1 3,3 0 0,6
20.07.2018 19:00:00 15,1 13,1 - - 26 14 Z 1012,8 7 0 0,2
20.07.2018 18:00:00 15,4 12,8 - - 26 14 Z 1013,0 30 0 0,0
20.07.2018 17:00:00 15,1 12,8 - - 24 13 Z 1013,6 10 0 0,0
20.07.2018 16:00:00 15,5 12,9 - - 28 15 ZZW 1014,0 10 0 0,0
20.07.2018 15:00:00 15,3 12,1 - - 28 15 Z 1014,1 10 0 0,0
20.07.2018 14:00:00 15,7 13,1 - - 28 15 Z 1014,4 10 0 0,0
20.07.2018 13:00:00 15,1 11,8 - - 26 14 ZZW 1014,7 10 0 0,0
20.07.2018 12:00:00 15,0 13,2 - - 18 10 Z 1014,7 10 0 0,0
20.07.2018 11:00:00 14,2 12,9 - - 11 6 Z 1015,0 10 0 0,8
20.07.2018 10:00:00 13,4 12,3 19,0 16,7 9 5 WZW 1015,6 10 0 2,8
20.07.2018 09:00:00 13,2 12,0 - - 11 6 WZW 1015,7 10 0 2,2
20.07.2018 08:00:00 14,3 13,0 - - 9 5 WZW 1015,9 10 0 1,2
20.07.2018 07:00:00 14,9 13,9 - - 13 7 WZW 1015,8 10 0 0,2
20.07.2018 06:00:00 15,4 13,4 - - 18 10 ZW 1015,7 35 0 0,2
20.07.2018 05:00:00 15,6 12,1 - - 18 10 ZZW 1016,0 10 0 0,0
20.07.2018 04:00:00 15,7 11,5 - - 18 10 ZZW 1016,4 50 0 0,0
20.07.2018 03:00:00 14,0 11,3 - - 9 5 ZZO 1016,7 10 0 0,0
20.07.2018 02:00:00 12,4 10,0 - - 5 3 O 1017,1 45 0 0,0
20.07.2018 01:00:00 12,4 9,1 - - 5 3 O 1017,4 10 - 0,0
20.07.2018 00:00:00 14,8 10,8 - - 8 4 Z 1017,9 10 0 0,0
19.07.2018 23:00:00 15,6 9,1 - - 4 2 ZZW 1018,1 50 0 0,0
19.07.2018 22:00:00 15,8 7,0 - - 9 5 WZW 1018,3 10 0 0,0
19.07.2018 21:00:00 18,6 7,1 - - 5 3 W 1018,3 10 54 0,0
19.07.2018 20:00:00 20,4 7,1 - - 8 4 WNW 1018,2 10 60 0,0
19.07.2018 19:00:00 20,3 6,0 - - 9 5 ZW 1018,3 10 60 0,0
19.07.2018 18:00:00 21,3 7,8 - - 8 4 W 1018,5 10 60 0,0
19.07.2018 17:00:00 20,9 7,6 - - 9 5 NW 1018,9 10 60 0,0
19.07.2018 16:00:00 21,1 8,7 - - 13 7 WNW 1019,5 10 60 0,0
19.07.2018 15:00:00 20,0 10,4 - - 11 6 NW 1019,7 10 60 0,0
19.07.2018 14:00:00 19,3 10,3 - - 15 8 ZW 1019,7 10 60 0,0
19.07.2018 13:00:00 19,7 10,3 - - 11 6 WZW 1019,8 10 60 0,0
19.07.2018 12:00:00 18,9 10,5 - - 18 10 ZW 1020,2 10 54 0,0
19.07.2018 11:00:00 18,1 11,2 - - 15 8 ZW 1020,3 10 60 0,0
19.07.2018 10:00:00 17,5 12,6 18,7 16,7 13 7 WZW 1020,2 10 60 0,0
19.07.2018 09:00:00 16,2 12,5 - - 11 6 ZW 1020,1 10 42 0,0
19.07.2018 08:00:00 15,5 15,1 - - 13 7 ZW 1020,0 10 54 0,0
19.07.2018 07:00:00 12,5 11,6 - - 4 2 OZO 1020,0 10 48 0,0
19.07.2018 06:00:00 11,4 11,1 - - 4 2 NO 1019,7 10 0 0,0
19.07.2018 05:00:00 11,5 11,1 - - 4 2 OZO 1019,8 10 0 0,0
19.07.2018 04:00:00 12,0 11,7 - - 5 3 ZO 1020,0 10 0 0,0
19.07.2018 03:00:00 11,9 11,4 - - 4 2 ZO 1019,8 12 0 0,0
19.07.2018 02:00:00 12,0 11,2 - - 8 4 ZO 1019,8 11 0 0,0
19.07.2018 01:00:00 13,5 12,7 - - 8 4 ZO 1019,8 8 - 0,0
19.07.2018 00:00:00 14,1 13,0 - - 5 3 ZZW 1019,7 9 0 0,0
18.07.2018 23:00:00 14,1 13,1 - - 5 3 ZW 1019,7 7 0 0,0
18.07.2018 22:00:00 15,0 13,8 - - 8 4 WZW 1019,6 7 0 0,0
18.07.2018 21:00:00 16,4 12,0 - - 9 5 WZW 1019,2 10 48 0,0
18.07.2018 20:00:00 18,6 11,2 - - 9 5 W 1018,8 45 60 0,0
18.07.2018 19:00:00 19,7 11,0 - - 9 5 W 1018,5 10 60 0,0
18.07.2018 18:00:00 20,4 10,6 - - 9 5 WZW 1018,4 10 36 0,0
18.07.2018 17:00:00 19,7 13,6 - - 11 6 W 1018,2 10 36 0,0
18.07.2018 16:00:00 20,0 14,0 - - 13 7 W 1018,2 10 54 0,0
18.07.2018 15:00:00 19,9 13,0 - - 15 8 W 1018,0 10 12 0,0
18.07.2018 14:00:00 19,1 13,1 - - 15 8 WZW 1017,9 10 6 0,0
18.07.2018 13:00:00 19,9 11,8 - - 18 10 WZW 1017,7 10 36 0,0
18.07.2018 12:00:00 18,0 12,9 - - 16 9 WZW 1017,4 10 0 0,0
18.07.2018 11:00:00 16,4 14,0 - - 15 8 ZW 1017,4 10 0 0,0
18.07.2018 10:00:00 16,3 13,8 18,9 16,7 11 6 ZW 1017,2 10 0 0,0
18.07.2018 09:00:00 16,4 14,2 - - 21 11 ZZW 1017,0 10 0 0,0
18.07.2018 08:00:00 16,3 14,3 - - 13 7 Z 1016,7 10 0 0,0
18.07.2018 07:00:00 15,9 14,1 - - 16 9 Z 1016,2 10 0 0,0
18.07.2018 06:00:00 15,5 13,9 - - 16 9 Z 1015,9 10 0 0,0
18.07.2018 05:00:00 15,5 13,7 - - 18 10 Z 1015,8 40 0 0,0
18.07.2018 04:00:00 15,4 13,7 - - 22 12 Z 1015,6 45 0 0,0
18.07.2018 03:00:00 15,3 13,5 - - 22 12 Z 1015,9 45 0 0,0
18.07.2018 02:00:00 14,8 13,2 - - 21 11 Z 1015,9 10 0 0,0
18.07.2018 01:00:00 14,9 13,4 - - 22 12 Z 1016,0 10 - 0,0
18.07.2018 00:00:00 15,4 13,2 - - 18 10 Z 1016,1 50 0 0,0
17.07.2018 23:00:00 15,2 13,0 - - 18 10 Z 1016,1 10 0 0,0
17.07.2018 22:00:00 14,9 12,8 - - 15 8 Z 1016,0 10 0 0,0
17.07.2018 21:00:00 15,4 12,8 - - 18 10 Z 1015,8 10 18 0,0
17.07.2018 20:00:00 15,6 12,5 - - 18 10 ZZW 1015,7 10 0 0,0
17.07.2018 19:00:00 16,1 12,3 - - 22 12 ZZW 1015,5 10 0 0,0
17.07.2018 18:00:00 16,5 12,2 - - 21 11 ZZW 1015,7 10 0 0,0
17.07.2018 17:00:00 16,7 12,2 - - 22 12 ZZW 1015,8 10 42 0,0
17.07.2018 16:00:00 17,0 11,8 - - 22 12 ZW 1015,9 10 60 0,0
17.07.2018 15:00:00 17,4 11,6 - - 16 9 ZZW 1015,8 10 60 0,0
17.07.2018 14:00:00 17,0 10,7 - - 18 10 ZZW 1015,7 10 42 0,0
17.07.2018 13:00:00 16,7 11,0 - - 16 9 ZW 1015,8 10 60 0,0
17.07.2018 12:00:00 17,0 10,9 - - 18 10 ZW 1015,7 10 60 0,0

tt = temperatuur
td = dauwpunt
tt -20cm = temperatuur -20cm
tt -100cm = temperatuur -100cm
ff = windsnelheid
dd = windrichting
ppp = luchtdruk
vv = zicht
sd = Zonneschijnduur
rr = neerslag

Weerstations in de omgeving